Weather History for Detroit, MI

Change the Weather History Date:

Wednesday, December 28, 2011

  Actual Average Record
Temperature  
Mean Temperature 24 °F -  
Max Temperature 28 °F 34 °F 63 °F (1984)
Min Temperature 21 °F 22 °F 3 °F (2000)
Degree Days  
Heating Degree Days 40    
Moisture  
Dew Point 13 °F    
Average Humidity 62    
Maximum Humidity 75    
Minimum Humidity 43    
Precipitation  
Precipitation 0.00 in - - ()
Sea Level Pressure  
Sea Level Pressure 29.95 in    
Wind  
Wind Speed 12 mph (NW)    
Max Wind Speed 16 mph    
Max Gust Speed 31 mph    
Visibility 10 miles    
Events      
Averages and records for this station are not official NWS values.
T = Trace of Precipitation, MM = Missing Value Source: NWS Daily Summary

Daily Weather History Graph

Daily Weather History Graph

Search for Another Location

Airport:

Trip Planner

Search our weather history database for the weather conditions in past years. The results will help you decide how hot, cold, wet, or windy it might be!

Date:

Astronomy

Dec. 28, 2011 Rise Set
Actual Time 8:00 AM EST 5:06 PM EST
Civil Twilight 7:28 AM EST 5:38 PM EST
Nautical Twilight 6:53 AM EST 6:13 PM EST
Astronomical Twilight 6:19 AM EST 6:48 PM EST
Moon 10:21 AM EST (12/28) 9:47 PM EST (12/28)
Length of Visible Light 10h 09m
Length of Day
9h 05m
Waxing Crescent, 18% of the Moon is Illuminated
Dec 28
Waxing Crescent
Jan 1
First Quarter
Jan 9
Full
Jan 16
Last Quarter
Jan 23
New

Hourly Weather History & Observations

Time (EST) Temp. Windchill Dew Point Humidity Pressure Visibility Wind Dir Wind Speed Gust Speed Precip Events Conditions
12:53 AM 28.0 °F 16.5 °F 21.0 °F 75% 29.73 in 10.0 mi NW 15.0 mph 27.6 mph N/A   Overcast
1:53 AM 28.0 °F 16.1 °F 19.9 °F 72% 29.76 in 10.0 mi WNW 16.1 mph 25.3 mph N/A   Overcast
2:53 AM 27.0 °F 14.7 °F 17.1 °F 66% 29.81 in 10.0 mi NW 16.1 mph 31.1 mph N/A   Overcast
3:53 AM 26.1 °F 13.6 °F 16.0 °F 66% 29.83 in 10.0 mi NW 16.1 mph 25.3 mph N/A   Overcast
4:17 AM 26.6 °F 14.3 °F 15.8 °F 64% 29.82 in 10.0 mi NNW 16.1 mph 31.1 mph N/A   Overcast
4:25 AM 26.6 °F 14.3 °F 15.8 °F 64% 29.83 in 10.0 mi NNW 16.1 mph 24.2 mph N/A   Overcast
4:53 AM 25.0 °F 12.6 °F 16.0 °F 69% 29.86 in 10.0 mi NW 15.0 mph 23.0 mph N/A   Overcast
5:45 AM 24.8 °F 12.4 °F 15.8 °F 69% 29.87 in 10.0 mi NW 15.0 mph 23.0 mph N/A   Overcast
5:53 AM 25.0 °F 13.6 °F 15.1 °F 66% 29.89 in 10.0 mi NNW 12.7 mph 23.0 mph N/A   Overcast
6:53 AM 24.1 °F 13.7 °F 14.0 °F 65% 29.91 in 10.0 mi NW 10.4 mph 18.4 mph N/A   Overcast
7:53 AM 23.0 °F 11.1 °F 12.9 °F 65% 29.94 in 10.0 mi WNW 12.7 mph 21.9 mph N/A   Overcast
8:23 AM 23.0 °F 11.1 °F 12.2 °F 63% 29.93 in 10.0 mi NW 12.7 mph 23.0 mph N/A   Mostly Cloudy
8:35 AM 23.0 °F 11.7 °F 12.2 °F 63% 29.93 in 10.0 mi NW 11.5 mph 19.6 mph N/A   Scattered Clouds
8:53 AM 21.9 °F 10.4 °F 12.9 °F 68% 29.97 in 10.0 mi NW 11.5 mph 19.6 mph N/A   Scattered Clouds
9:53 AM 21.9 °F 11.7 °F 12.0 °F 66% 30.01 in 10.0 mi NW 9.2 mph - N/A   Partly Cloudy
10:53 AM 24.1 °F 15.2 °F 12.0 °F 60% 30.02 in 10.0 mi WNW 8.1 mph - N/A   Clear
11:53 AM 25.0 °F 14.2 °F 10.0 °F 53% 30.01 in 10.0 mi NW 11.5 mph - N/A   Clear
12:53 PM 26.1 °F 18.4 °F 9.0 °F 49% 30.01 in 10.0 mi NNW 6.9 mph - N/A   Clear
1:53 PM 27.0 °F 18.0 °F 7.0 °F 43% 30.01 in 10.0 mi NW 9.2 mph - N/A   Clear
2:53 PM 27.0 °F 19.5 °F 7.0 °F 43% 30.02 in 10.0 mi WNW 6.9 mph - N/A   Clear
3:53 PM 27.0 °F 21.6 °F 8.1 °F 45% 30.04 in 10.0 mi WNW 4.6 mph - N/A   Clear
4:53 PM 26.1 °F 20.5 °F 8.1 °F 47% 30.04 in 10.0 mi WNW 4.6 mph - N/A   Clear
5:53 PM 25.0 °F - 9.0 °F 51% 30.06 in 10.0 mi Calm Calm - N/A   Clear
6:53 PM 24.1 °F - 10.9 °F 57% 30.05 in 10.0 mi Calm Calm - N/A   Clear
7:53 PM 21.9 °F 17.2 °F 12.0 °F 66% 30.05 in 10.0 mi ENE 3.5 mph - N/A   Clear
8:53 PM 21.9 °F - 12.0 °F 66% 30.04 in 10.0 mi Calm Calm - N/A   Clear
9:53 PM 21.9 °F - 12.0 °F 66% 30.04 in 10.0 mi Calm Calm - N/A   Mostly Cloudy
10:53 PM 21.9 °F 15.7 °F 15.1 °F 75% 30.03 in 10.0 mi SE 4.6 mph - N/A   Overcast
11:53 PM 21.9 °F 15.7 °F 15.1 °F 75% 30.00 in 10.0 mi SE 4.6 mph - N/A   Overcast